This is the latest recevied weather packets stored in our database for station/object PA5MB-15. If no packets are shown the sender has not sent any weather packets the latest 10 day(s).
| Time | Temp. | Humidity | Pressure | Rain* | Wind** | Luminosity | Snow |
|---|---|---|---|---|---|---|---|
| 1778151929 | 15.56° C | 56% | 1017.5 hPa | 0 mm | - | 74 W/m² | - |
| 1778151622 | 15.56° C | 57% | 1017.6 hPa | 0 mm | - | 38 W/m² | - |
| 1778151329 | 15.56° C | 56% | 1017.6 hPa | 0 mm | - | 24 W/m² | - |
| 1778151030 | 15° C | 57% | 1017.6 hPa | 0 mm | - | 68 W/m² | - |
| 1778150729 | 14.44° C | 60% | 1017.6 hPa | 0 mm | - | 59 W/m² | - |
| 1778150425 | 15° C | 59% | 1017.6 hPa | 0 mm | - | 17 W/m² | - |
| 1778150130 | 16.11° C | 56% | 1017.6 hPa | 0 mm | - | 43 W/m² | - |
| 1778149829 | 15.56° C | 56% | 1017.6 hPa | 0 mm | - | 73 W/m² | - |
| 1778149531 | 16.11° C | 59% | 1017.6 hPa | 0 mm | - | 68 W/m² | - |
| 1778149230 | 16.11° C | 57% | 1017.6 hPa | 0 mm | - | 72 W/m² | - |
| 1778148929 | 16.11° C | 59% | 1017.5 hPa | 0 mm | - | 71 W/m² | - |
| 1778148642 | 15.56° C | 58% | 1017.5 hPa | 0 mm | - | 71 W/m² | - |
| 1778148329 | 15.56° C | 59% | 1017.5 hPa | 0 mm | - | 71 W/m² | - |
| 1778148024 | 15.56° C | 62% | 1017.6 hPa | 0 mm | - | 69 W/m² | - |
| 1778147734 | 16.11° C | 58% | 1017.5 hPa | 0 mm | - | 71 W/m² | - |
| 1778147430 | 15.56° C | 61% | 1017.5 hPa | 0 mm | - | 70 W/m² | - |
| 1778147129 | 15° C | 63% | 1017.5 hPa | 0 mm | - | 65 W/m² | - |
| 1778146830 | 15° C | 63% | 1017.5 hPa | 0 mm | - | 64 W/m² | - |
| 1778146529 | 15° C | 62% | 1017.4 hPa | 0 mm | - | 64 W/m² | - |
| 1778146230 | 15° C | 64% | 1017.4 hPa | 0 mm | - | 63 W/m² | - |
| 1778145922 | 15° C | 64% | 1017.4 hPa | 0 mm | - | 62 W/m² | - |
| 1778145626 | 14.44° C | 65% | 1017.4 hPa | 0 mm | - | 60 W/m² | - |
| 1778145333 | 13.89° C | 65% | 1017.3 hPa | 0 mm | - | 59 W/m² | - |
| 1778145029 | 15° C | 66% | 1017.3 hPa | 0 mm | - | 58 W/m² | - |
| 1778144729 | 14.44° C | 66% | 1017.3 hPa | 0 mm | - | 57 W/m² | - |
* Rain latest hour (hover to see other rain measurements)
** Current wind speed in m/s (hover to see current wind gust speed)